SWA551 KBWI-KPWM

Flight info

Callsign SWA551
Flight time 1h 9m
Altitude 35000
Route KBWI DUKPN1 BROSS Q419 RBV Q22 LLUND BDR SCOGS3 KPWM
Aircraft B738/M-VGDW/C

Departure

Time 2026-05-04 01:05
Airport Baltimore/Washington International Thurgood Marshall Airport (KBWI)

Arrival

Time 2026-05-04 02:14
Airport Portland International Jetport (KPWM)
Time Latitude Longitude Altitude Speed Heading
2026-05-04 00:32 39.17714 -76.67054 155 ft 0 kts 90°
2026-05-04 00:57 39.17714 -76.67058 155 ft 2 kts 90°
2026-05-04 00:58 39.17714 -76.67080 155 ft 2 kts 90°
2026-05-04 00:58 39.17714 -76.67103 155 ft 2 kts 90°
2026-05-04 00:58 39.17715 -76.67125 155 ft 2 kts 90°
2026-05-04 00:58 39.17715 -76.67131 155 ft 0 kts 91°
2026-05-04 00:59 39.17711 -76.67128 155 ft 0 kts 136°
2026-05-04 00:59 39.17695 -76.67114 155 ft 7 kts 150°
2026-05-04 01:00 39.17628 -76.67069 155 ft 13 kts 148°
2026-05-04 01:00 39.17559 -76.66993 155 ft 13 kts 125°
2026-05-04 01:00 39.17529 -76.66887 155 ft 13 kts 122°
2026-05-04 01:00 39.17472 -76.66805 154 ft 12 kts 117°
2026-05-04 01:01 39.17458 -76.66696 154 ft 12 kts 94°
2026-05-04 01:01 39.17451 -76.66587 154 ft 12 kts 94°
2026-05-04 01:01 39.17475 -76.66491 154 ft 12 kts 42°
2026-05-04 01:01 39.17522 -76.66412 152 ft 11 kts 86°
2026-05-04 01:02 39.17492 -76.66310 149 ft 13 kts 120°
2026-05-04 01:02 39.17460 -76.66205 149 ft 13 kts 99°
2026-05-04 01:02 39.17449 -76.66092 148 ft 12 kts 96°
2026-05-04 01:02 39.17440 -76.65984 146 ft 12 kts 96°
2026-05-04 01:03 39.17438 -76.65936 145 ft 13 kts 91°
2026-05-04 01:03 39.17433 -76.65783 141 ft 20 kts 94°
2026-05-04 01:03 39.17422 -76.65601 142 ft 20 kts 94°
2026-05-04 01:03 39.17339 -76.65522 140 ft 16 kts 182°
2026-05-04 01:04 39.17282 -76.65585 140 ft 10 kts 262°
2026-05-04 01:04 39.17285 -76.65689 140 ft 26 kts 272°
2026-05-04 01:04 39.17315 -76.66299 149 ft 109 kts 274°
2026-05-04 01:04 39.17378 -76.67586 221 ft 171 kts 273°
2026-05-04 01:05 39.17496 -76.69118 1169 ft 174 kts 276°
2026-05-04 01:05 39.17604 -76.70754 1976 ft 190 kts 274°
2026-05-04 01:05 39.17703 -76.72561 2297 ft 216 kts 271°
2026-05-04 01:05 39.17343 -76.74492 2898 ft 227 kts 242°
2026-05-04 01:06 39.16229 -76.75959 3685 ft 236 kts 212°
2026-05-04 01:06 39.14657 -76.76510 4601 ft 244 kts 182°
2026-05-04 01:06 39.13007 -76.75905 5409 ft 255 kts 149°
2026-05-04 01:06 39.11708 -76.74312 6204 ft 262 kts 129°
2026-05-04 01:07 39.10618 -76.72405 6798 ft 265 kts 126°
2026-05-04 01:07 39.09540 -76.70469 7067 ft 269 kts 127°
2026-05-04 01:07 39.08515 -76.68414 7258 ft 275 kts 111°
2026-05-04 01:07 39.08141 -76.66011 8042 ft 274 kts 89°
2026-05-04 01:08 39.08211 -76.63562 8890 ft 275 kts 84°
2026-05-04 01:08 39.08333 -76.61079 9620 ft 279 kts 84°
2026-05-04 01:08 39.08457 -76.58564 10336 ft 284 kts 84°
2026-05-04 01:08 39.08572 -76.56022 10864 ft 296 kts 85°
2026-05-04 01:09 39.08689 -76.53268 11053 ft 321 kts 85°
2026-05-04 01:09 39.08806 -76.50296 11245 ft 345 kts 85°
2026-05-04 01:09 39.08929 -76.47107 11432 ft 367 kts 85°
2026-05-04 01:09 39.09387 -76.43805 11698 ft 381 kts 69°
2026-05-04 01:10 39.10294 -76.40559 12291 ft 387 kts 67°
2026-05-04 01:10 39.11225 -76.37291 12999 ft 391 kts 67°
2026-05-04 01:10 39.12154 -76.33975 13688 ft 396 kts 67°
2026-05-04 01:10 39.13077 -76.30600 14283 ft 401 kts 68°
2026-05-04 01:11 39.14000 -76.27179 14857 ft 407 kts 68°
2026-05-04 01:11 39.14928 -76.23722 15435 ft 411 kts 68°
2026-05-04 01:11 39.15649 -76.20118 16017 ft 419 kts 78°
2026-05-04 01:11 39.16036 -76.16374 16581 ft 425 kts 82°
2026-05-04 01:12 39.16374 -76.12566 17136 ft 430 kts 81°
2026-05-04 01:12 39.16762 -76.08726 17686 ft 434 kts 80°
2026-05-04 01:12 39.17187 -76.04902 18239 ft 439 kts 79°
2026-05-04 01:12 39.17639 -76.00983 18712 ft 443 kts 79°
2026-05-04 01:13 39.18095 -75.97020 19183 ft 448 kts 79°
2026-05-04 01:13 39.18551 -75.93032 19640 ft 452 kts 78°
2026-05-04 01:13 39.19443 -75.89163 20056 ft 450 kts 59°
2026-05-04 01:13 39.21141 -75.85822 20536 ft 442 kts 41°
2026-05-04 01:14 39.23385 -75.83158 21045 ft 437 kts 33°
2026-05-04 01:14 39.24936 -75.81495 21347 ft 439 kts 32°
2026-05-04 01:14 39.27310 -75.78986 21793 ft 443 kts 32°
2026-05-04 01:14 39.29696 -75.76448 22249 ft 447 kts 32°
2026-05-04 01:15 39.32092 -75.73865 22701 ft 450 kts 33°
2026-05-04 01:15 39.34495 -75.71243 23140 ft 454 kts 33°
2026-05-04 01:15 39.36911 -75.68585 23569 ft 458 kts 33°
2026-05-04 01:15 39.40139 -75.65023 24040 ft 462 kts 33°
2026-05-04 01:16 39.41797 -75.63195 24295 ft 463 kts 33°
2026-05-04 01:16 39.44253 -75.60486 24672 ft 466 kts 33°
2026-05-04 01:16 39.46698 -75.57798 25024 ft 468 kts 33°
2026-05-04 01:16 39.49191 -75.55060 25379 ft 470 kts 33°
2026-05-04 01:17 39.51692 -75.52312 25741 ft 472 kts 33°
2026-05-04 01:17 39.54199 -75.49553 26093 ft 474 kts 33°
2026-05-04 01:17 39.56717 -75.46775 26526 ft 474 kts 33°
2026-05-04 01:17 39.59217 -75.44014 27031 ft 471 kts 32°
2026-05-04 01:18 39.61707 -75.41261 27579 ft 469 kts 32°
2026-05-04 01:18 39.64183 -75.38525 28101 ft 467 kts 32°
2026-05-04 01:18 39.66652 -75.35797 28558 ft 466 kts 32°
2026-05-04 01:18 39.69129 -75.33059 28995 ft 466 kts 32°
2026-05-04 01:19 39.71562 -75.30367 29457 ft 465 kts 32°
2026-05-04 01:19 39.74049 -75.27609 29954 ft 464 kts 31°
2026-05-04 01:19 39.76502 -75.24888 30345 ft 463 kts 31°
2026-05-04 01:19 39.78947 -75.22149 30605 ft 467 kts 34°
2026-05-04 01:20 39.81220 -75.19131 30827 ft 477 kts 40°
2026-05-04 01:20 39.83406 -75.15854 31137 ft 480 kts 42°
2026-05-04 01:20 39.85564 -75.12521 31457 ft 480 kts 43°
2026-05-04 01:20 39.87724 -75.09196 31740 ft 481 kts 42°
2026-05-04 01:21 39.89910 -75.05877 31997 ft 483 kts 42°
2026-05-04 01:21 39.92114 -75.02567 32262 ft 483 kts 42°
2026-05-04 01:21 39.94332 -74.99250 32554 ft 484 kts 42°
2026-05-04 01:21 39.96511 -74.95979 32831 ft 486 kts 44°
2026-05-04 01:22 39.98566 -74.92444 33089 ft 492 kts 50°
2026-05-04 01:22 40.00479 -74.88740 33361 ft 494 kts 51°
2026-05-04 01:22 40.02349 -74.84971 33632 ft 495 kts 52°
2026-05-04 01:22 40.04218 -74.81182 33894 ft 496 kts 52°
2026-05-04 01:23 40.06095 -74.77405 34130 ft 496 kts 52°
2026-05-04 01:23 40.07990 -74.73635 34371 ft 496 kts 51°
2026-05-04 01:23 40.09892 -74.69876 34632 ft 495 kts 51°
2026-05-04 01:23 40.11794 -74.66128 34842 ft 495 kts 51°
2026-05-04 01:24 40.13699 -74.62374 35001 ft 497 kts 52°
2026-05-04 01:24 40.17531 -74.54803 35007 ft 506 kts 52°
2026-05-04 01:25 40.21879 -74.47571 34992 ft 504 kts 37°
2026-05-04 01:25 40.27284 -74.41739 34997 ft 506 kts 32°
2026-05-04 01:26 40.32842 -74.35981 34988 ft 509 kts 32°
2026-05-04 01:26 40.38315 -74.30176 34984 ft 509 kts 33°
2026-05-04 01:27 40.43804 -74.24278 34970 ft 509 kts 33°
2026-05-04 01:27 40.49277 -74.18384 34958 ft 508 kts 33°
2026-05-04 01:28 40.54748 -74.12491 34963 ft 506 kts 33°
2026-05-04 01:28 40.60155 -74.06660 34970 ft 505 kts 33°
2026-05-04 01:29 40.65588 -74.00794 34978 ft 504 kts 33°
2026-05-04 01:29 40.71015 -73.94921 34972 ft 504 kts 34°
2026-05-04 01:30 40.76437 -73.89037 34956 ft 503 kts 34°
2026-05-04 01:30 40.81804 -73.83201 34958 ft 503 kts 34°
2026-05-04 01:31 40.86902 -73.76829 34951 ft 510 kts 46°
2026-05-04 01:31 40.90781 -73.68897 34947 ft 515 kts 56°
2026-05-04 01:32 40.94379 -73.60700 34938 ft 514 kts 56°
2026-05-04 01:32 40.98015 -73.52542 34937 ft 513 kts 56°
2026-05-04 01:33 41.01660 -73.44482 34933 ft 513 kts 56°
2026-05-04 01:33 41.05324 -73.36382 34935 ft 512 kts 56°
2026-05-04 01:34 41.08979 -73.28271 34940 ft 512 kts 56°
2026-05-04 01:34 41.12617 -73.20165 34945 ft 511 kts 56°
2026-05-04 01:35 41.16251 -73.12052 34949 ft 511 kts 56°
2026-05-04 01:35 41.19988 -73.03997 34945 ft 510 kts 54°
2026-05-04 01:36 41.23746 -72.96079 34939 ft 510 kts 54°
2026-05-04 01:36 41.27515 -72.88094 34936 ft 510 kts 54°
2026-05-04 01:37 41.31270 -72.80073 34936 ft 510 kts 55°
2026-05-04 01:37 41.35011 -72.72042 34944 ft 510 kts 55°
2026-05-04 01:38 41.38744 -72.64008 34949 ft 510 kts 55°
2026-05-04 01:38 41.42467 -72.55977 34943 ft 509 kts 55°
2026-05-04 01:39 41.46161 -72.47988 34949 ft 509 kts 55°
2026-05-04 01:39 41.49868 -72.39952 34939 ft 508 kts 55°
2026-05-04 01:40 41.53568 -72.31907 34928 ft 508 kts 55°
2026-05-04 01:40 41.57268 -72.23842 34915 ft 508 kts 55°
2026-05-04 01:41 41.60956 -72.15781 34920 ft 508 kts 55°
2026-05-04 01:41 41.64617 -72.07757 34921 ft 508 kts 56°
2026-05-04 01:42 41.68292 -71.99681 34917 ft 508 kts 56°
2026-05-04 01:42 41.71965 -71.91588 34910 ft 508 kts 56°
2026-05-04 01:43 41.75631 -71.83490 34910 ft 507 kts 56°
2026-05-04 01:43 41.77321 -71.79744 34887 ft 496 kts 56°
2026-05-04 01:43 41.79089 -71.75822 34892 ft 488 kts 56°
2026-05-04 01:44 41.82587 -71.68059 34908 ft 485 kts 56°
2026-05-04 01:44 41.85882 -71.60249 34908 ft 485 kts 61°
2026-05-04 01:45 41.88797 -71.52086 34763 ft 486 kts 63°
2026-05-04 01:45 41.90227 -71.47981 34415 ft 484 kts 63°
2026-05-04 01:45 41.93083 -71.39869 33533 ft 476 kts 62°
2026-05-04 01:46 41.94493 -71.35912 33069 ft 472 kts 62°
2026-05-04 01:46 41.95912 -71.31943 32620 ft 469 kts 61°
2026-05-04 01:46 41.97323 -71.27998 32195 ft 465 kts 61°
2026-05-04 01:46 41.98715 -71.24104 31766 ft 461 kts 61°
2026-05-04 01:47 42.00097 -71.20228 31353 ft 457 kts 61°
2026-05-04 01:47 42.01464 -71.16388 30939 ft 454 kts 60°
2026-05-04 01:47 42.02820 -71.12572 30531 ft 451 kts 60°
2026-05-04 01:47 42.04169 -71.08770 30126 ft 448 kts 60°
2026-05-04 01:48 42.05492 -71.05039 29668 ft 445 kts 60°
2026-05-04 01:48 42.06816 -71.01300 29221 ft 440 kts 60°
2026-05-04 01:48 42.08155 -70.97617 28812 ft 433 kts 54°
2026-05-04 01:48 42.09961 -70.94492 28430 ft 415 kts 37°
2026-05-04 01:49 42.12197 -70.92165 28124 ft 398 kts 24°
2026-05-04 01:49 42.14660 -70.90678 27855 ft 381 kts 12°
2026-05-04 01:49 42.17154 -70.89558 27535 ft 375 kts 11°
2026-05-04 01:49 42.19619 -70.88451 27177 ft 371 kts 12°
2026-05-04 01:50 42.22065 -70.87342 26776 ft 369 kts 12°
2026-05-04 01:50 42.24493 -70.86227 26396 ft 366 kts 12°
2026-05-04 01:50 42.26895 -70.85115 26022 ft 364 kts 12°
2026-05-04 01:50 42.29248 -70.84020 25655 ft 361 kts 12°
2026-05-04 01:51 42.31615 -70.82914 25279 ft 359 kts 12°
2026-05-04 01:51 42.33964 -70.81815 24914 ft 356 kts 12°
2026-05-04 01:51 42.36299 -70.80721 24547 ft 354 kts 12°
2026-05-04 01:51 42.38621 -70.79633 24183 ft 352 kts 12°
2026-05-04 01:52 42.40926 -70.78552 23821 ft 350 kts 12°
2026-05-04 01:52 42.43223 -70.77474 23449 ft 348 kts 12°
2026-05-04 01:52 42.45483 -70.76340 23127 ft 345 kts 14°
2026-05-04 01:52 42.47700 -70.75122 22774 ft 342 kts 15°
2026-05-04 01:53 42.49894 -70.73890 22413 ft 339 kts 15°
2026-05-04 01:53 42.52064 -70.72674 22061 ft 336 kts 15°
2026-05-04 01:53 42.54217 -70.71476 21685 ft 333 kts 15°
2026-05-04 01:53 42.56354 -70.70294 21344 ft 330 kts 15°
2026-05-04 01:54 42.58451 -70.69137 20989 ft 328 kts 15°
2026-05-04 01:54 42.60585 -70.67962 20633 ft 326 kts 15°
2026-05-04 01:54 42.62654 -70.66822 20289 ft 324 kts 15°
2026-05-04 01:54 42.64740 -70.65673 19950 ft 322 kts 15°
2026-05-04 01:55 42.66812 -70.64530 19600 ft 321 kts 15°
2026-05-04 01:55 42.68877 -70.63356 19263 ft 320 kts 17°
2026-05-04 01:55 42.70909 -70.62097 18922 ft 320 kts 18°
2026-05-04 01:55 42.72922 -70.60816 18587 ft 318 kts 18°
2026-05-04 01:56 42.74921 -70.59540 18251 ft 317 kts 18°
2026-05-04 01:56 42.76916 -70.58270 17870 ft 316 kts 18°
2026-05-04 01:56 42.78905 -70.57009 17500 ft 314 kts 18°
2026-05-04 01:56 42.80857 -70.55774 17151 ft 312 kts 18°
2026-05-04 01:57 42.82814 -70.54536 16925 ft 306 kts 18°
2026-05-04 01:57 42.84733 -70.53323 16643 ft 302 kts 18°
2026-05-04 01:57 42.86636 -70.52122 16320 ft 300 kts 17°
2026-05-04 01:57 42.88530 -70.50927 15996 ft 299 kts 17°
2026-05-04 01:58 42.90412 -70.49738 15668 ft 297 kts 18°
2026-05-04 01:58 42.92285 -70.48555 15350 ft 296 kts 18°
2026-05-04 01:58 42.94153 -70.47374 15026 ft 295 kts 17°
2026-05-04 01:58 42.96016 -70.46196 14712 ft 294 kts 17°
2026-05-04 01:59 42.97848 -70.45035 14395 ft 293 kts 17°
2026-05-04 01:59 42.99692 -70.43867 14083 ft 292 kts 17°
2026-05-04 01:59 43.01534 -70.42699 13760 ft 291 kts 18°
2026-05-04 01:59 43.03332 -70.41399 13416 ft 294 kts 24°
2026-05-04 02:00 43.05063 -70.39902 13074 ft 294 kts 26°
2026-05-04 02:00 43.06777 -70.38368 12744 ft 293 kts 26°
2026-05-04 02:00 43.07907 -70.37358 12523 ft 292 kts 26°
2026-05-04 02:00 43.09606 -70.35854 12188 ft 290 kts 26°
2026-05-04 02:01 43.11303 -70.34368 11886 ft 289 kts 26°
2026-05-04 02:01 43.13539 -70.32422 11471 ft 287 kts 26°
2026-05-04 02:01 43.15223 -70.30959 11154 ft 286 kts 26°
2026-05-04 02:01 43.16897 -70.29501 10862 ft 285 kts 26°
2026-05-04 02:02 43.18030 -70.28508 10674 ft 287 kts 26°
2026-05-04 02:02 43.19715 -70.27028 10385 ft 287 kts 26°
2026-05-04 02:02 43.21368 -70.25573 10107 ft 285 kts 27°
2026-05-04 02:02 43.23032 -70.24108 9822 ft 283 kts 27°
2026-05-04 02:03 43.24684 -70.22653 9507 ft 281 kts 27°
2026-05-04 02:03 43.26332 -70.21220 9208 ft 279 kts 26°
2026-05-04 02:03 43.27968 -70.19811 8916 ft 276 kts 26°
2026-05-04 02:03 43.29589 -70.18415 8637 ft 273 kts 26°
2026-05-04 02:04 43.31197 -70.17028 8365 ft 271 kts 26°
2026-05-04 02:04 43.32793 -70.15675 8086 ft 267 kts 24°
2026-05-04 02:04 43.34372 -70.14419 7823 ft 264 kts 23°
2026-05-04 02:04 43.35961 -70.13176 7573 ft 262 kts 23°
2026-05-04 02:05 43.37538 -70.11941 7314 ft 259 kts 23°
2026-05-04 02:05 43.39099 -70.10716 7058 ft 257 kts 23°
2026-05-04 02:05 43.40645 -70.09500 6804 ft 255 kts 23°
2026-05-04 02:05 43.42177 -70.08290 6556 ft 252 kts 23°
2026-05-04 02:06 43.43697 -70.07089 6305 ft 250 kts 23°
2026-05-04 02:06 43.45182 -70.05914 6045 ft 248 kts 23°
2026-05-04 02:06 43.46671 -70.04735 5791 ft 246 kts 23°
2026-05-04 02:06 43.48148 -70.03564 5537 ft 244 kts 23°
2026-05-04 02:07 43.49614 -70.02402 5286 ft 242 kts 23°
2026-05-04 02:07 43.51071 -70.01245 5057 ft 242 kts 23°
2026-05-04 02:07 43.52539 -70.00080 4817 ft 244 kts 23°
2026-05-04 02:07 43.54017 -69.98922 4559 ft 243 kts 19°
2026-05-04 02:08 43.55612 -69.98447 4301 ft 231 kts 351°
2026-05-04 02:08 43.57123 -69.99006 4085 ft 223 kts 330°
2026-05-04 02:08 43.58392 -70.00195 3877 ft 220 kts 320°
2026-05-04 02:08 43.59572 -70.01546 3645 ft 218 kts 319°
2026-05-04 02:09 43.60723 -70.02880 3424 ft 215 kts 319°
2026-05-04 02:09 43.61850 -70.04199 3222 ft 209 kts 314°
2026-05-04 02:09 43.62604 -70.05840 3028 ft 199 kts 294°
2026-05-04 02:09 43.62913 -70.07636 2814 ft 192 kts 279°
2026-05-04 02:10 43.63034 -70.09434 2625 ft 183 kts 279°
2026-05-04 02:10 43.63140 -70.11142 2463 ft 174 kts 279°
2026-05-04 02:10 43.63244 -70.12761 2280 ft 165 kts 279°
2026-05-04 02:10 43.63344 -70.14293 2120 ft 156 kts 279°
2026-05-04 02:11 43.63441 -70.15741 1955 ft 147 kts 279°
2026-05-04 02:11 43.63533 -70.17088 1814 ft 137 kts 281°
2026-05-04 02:11 43.63633 -70.18391 1769 ft 133 kts 280°
2026-05-04 02:11 43.63720 -70.19648 1611 ft 129 kts 279°
2026-05-04 02:12 43.63801 -70.20856 1471 ft 124 kts 279°
2026-05-04 02:12 43.63881 -70.22066 1273 ft 127 kts 278°
2026-05-04 02:12 43.63963 -70.23297 1081 ft 130 kts 278°
2026-05-04 02:12 43.64048 -70.24572 879 ft 136 kts 276°
2026-05-04 02:13 43.64135 -70.25881 688 ft 138 kts 276°
2026-05-04 02:13 43.64222 -70.27187 498 ft 137 kts 275°
2026-05-04 02:13 43.64309 -70.28488 304 ft 136 kts 275°
2026-05-04 02:13 43.64393 -70.29755 97 ft 128 kts 273°
2026-05-04 02:14 43.64463 -70.30854 61 ft 97 kts 275°
2026-05-04 02:14 43.64516 -70.31566 74 ft 50 kts 276°
2026-05-04 02:14 43.64539 -70.31912 77 ft 20 kts 275°
2026-05-04 02:14 43.64550 -70.32033 82 ft 12 kts 288°
2026-05-04 02:15 43.64614 -70.32082 72 ft 11 kts
2026-05-04 02:15 43.64652 -70.32000 73 ft 11 kts 81°
2026-05-04 02:15 43.64653 -70.31901 76 ft 10 kts 90°
2026-05-04 02:15 43.64648 -70.31804 70 ft 10 kts 96°
2026-05-04 02:16 43.64641 -70.31709 70 ft 10 kts 96°
2026-05-04 02:16 43.64633 -70.31617 69 ft 9 kts 97°
2026-05-04 02:16 43.64626 -70.31529 72 ft 9 kts 96°
2026-05-04 02:16 43.64619 -70.31441 71 ft 9 kts 96°
2026-05-04 02:17 43.64619 -70.31356 66 ft 9 kts 91°
2026-05-04 02:17 43.64633 -70.31275 61 ft 8 kts 63°
2026-05-04 02:17 43.64663 -70.31233 65 ft 5 kts 34°
2026-05-04 02:17 43.64675 -70.31223 65 ft 0 kts 31°
2026-05-04 02:18 43.64683 -70.31218 66 ft 0 kts 25°